Weather History for KCEW - July, 2013

Change the Weather History Date:

Sunday, July 21, 2013

  Actual Average Record
Temperature  
Mean Temperature 80 °F -  
Max Temperature 89 °F 91 °F 98 °F (2008)
Min Temperature 73 °F 70 °F 66 °F (1999)
Cooling Degree Days 16    
Growing Degree Days 30 (Base 50)    
Moisture  
Dew Point 72 °F    
Average Humidity 78    
Maximum Humidity 94    
Minimum Humidity 58    
Precipitation  
Precipitation 0.01 in - - ()
Sea Level Pressure  
Sea Level Pressure 30.05 in    
Wind  
Wind Speed 4 mph (SW)    
Max Wind Speed 15 mph    
Max Gust Speed 25 mph    
Visibility 10 miles    
Events Rain , Thunderstorm    
Averages and records for this station are not official NWS values.
T = Trace of Precipitation, MM = Missing Value Source: NWS Daily Summary

Daily Weather History Graph

Daily Weather History Graph

Search for Another Location

Airport or City:

Trip Planner

Search our weather history database for the weather conditions in past years. The results will help you decide how hot, cold, wet, or windy it might be!

Date:

Astronomy

Jul. 21, 2013 Rise Set
Actual Time 5:57 AM CDT 7:47 PM CDT
Civil Twilight 5:30 AM CDT 8:14 PM CDT
Nautical Twilight 4:57 AM CDT 8:46 PM CDT
Astronomical Twilight 4:23 AM CDT 9:20 PM CDT
Moon 6:48 PM CDT (7/21) 4:40 AM CDT (7/21)
Length of Visible Light 14h 44m
Length of Day
13h 50m
Waxing Gibbous, 98% of the Moon is Illuminated
Jul 21
Waxing Gibbous
Jul 22
Full
Jul 29
Last Quarter
Aug 6
New
Aug 14
First Quarter

Hourly Weather History & Observations

Time (CDT) Temp. Heat Index Dew Point Humidity Pressure Visibility Wind Dir Wind Speed Gust Speed Precip Events Conditions
12:53 AM 75.0 °F - 72.0 °F 90% 30.03 in 9.0 mi Calm Calm - N/A   Clear
1:53 AM 75.0 °F - 73.0 °F 94% 30.01 in 9.0 mi Calm Calm - N/A   Partly Cloudy
2:53 AM 75.0 °F - 73.0 °F 94% 30.01 in 9.0 mi Calm Calm - N/A   Clear
3:53 AM 73.9 °F - 72.0 °F 93% 30.01 in 8.0 mi Calm Calm - N/A   Clear
4:53 AM 73.9 °F - 72.0 °F 93% 30.02 in 3.0 mi Calm Calm - N/A   Clear
5:53 AM 73.9 °F - 72.0 °F 93% 30.03 in 9.0 mi Calm Calm - N/A   Clear
6:53 AM 75.9 °F - 73.0 °F 91% 30.05 in 8.0 mi Calm Calm - N/A   Clear
7:53 AM 79.0 °F - 75.0 °F 88% 30.06 in 10.0 mi South 4.6 mph - 0.00 in   Clear
8:53 AM 82.9 °F 89.4 °F 73.9 °F 74% 30.06 in 10.0 mi SSW 12.7 mph - N/A   Partly Cloudy
9:53 AM 84.9 °F 90.7 °F 72.0 °F 65% 30.07 in 10.0 mi West 6.9 mph - N/A   Scattered Clouds
10:53 AM 84.9 °F 91.4 °F 73.0 °F 67% 30.07 in 10.0 mi South 8.1 mph - N/A   Clear
11:53 AM 86.0 °F 93.0 °F 73.0 °F 65% 30.07 in 10.0 mi South 5.8 mph - 0.01 in   Partly Cloudy
12:37 PM 87.8 °F 93.8 °F 71.6 °F 58% 30.07 in 10.0 mi SW 13.8 mph - N/A Thunderstorm Scattered Clouds
12:53 PM 84.9 °F 90.1 °F 71.1 °F 63% 30.06 in 10.0 mi SW 11.5 mph - N/A   Mostly Cloudy
1:53 PM 87.1 °F 94.5 °F 73.0 °F 63% 30.05 in 10.0 mi SW 6.9 mph - 0.00 in Rain Light Rain
2:53 PM 88.0 °F 94.7 °F 72.0 °F 59% 30.04 in 10.0 mi SW 11.5 mph 19.6 mph 0.00 in   Mostly Cloudy
3:53 PM 80.1 °F 82.9 °F 69.1 °F 69% 30.04 in 10.0 mi WNW 15.0 mph 25.3 mph N/A   Mostly Cloudy
3:57 PM 78.8 °F - 69.8 °F 74% 30.04 in 10.0 mi WNW 11.5 mph 20.7 mph N/A   Mostly Cloudy
4:53 PM 79.0 °F - 72.0 °F 79% 30.03 in 10.0 mi South 10.4 mph - 0.00 in   Scattered Clouds
5:07 PM 80.6 °F 84.6 °F 71.6 °F 74% 30.04 in 10.0 mi SW 9.2 mph - N/A   Mostly Cloudy
5:34 PM 80.6 °F 84.6 °F 71.6 °F 74% 30.05 in 10.0 mi WSW 8.1 mph - N/A   Scattered Clouds
5:53 PM 80.1 °F 83.2 °F 70.0 °F 71% 30.04 in 10.0 mi SW 11.5 mph - N/A   Clear
6:53 PM 79.0 °F - 70.0 °F 74% 30.04 in 10.0 mi WSW 6.9 mph - N/A   Clear
7:53 PM 78.1 °F - 71.1 °F 79% 30.05 in 10.0 mi SW 4.6 mph - N/A   Clear
8:53 PM 77.0 °F - 71.1 °F 82% 30.05 in 10.0 mi SW 4.6 mph - N/A   Clear
9:53 PM 77.0 °F - 72.0 °F 84% 30.07 in 10.0 mi SSW 3.5 mph - 0.00 in Rain Light Rain
10:53 PM 75.9 °F - 72.0 °F 87% 30.08 in 10.0 mi Calm Calm - 0.00 in   Partly Cloudy
11:53 PM 75.9 °F - 72.0 °F 87% 30.08 in 10.0 mi South 3.5 mph - 0.00 in   Clear